Wind_Speed
15 17 20 22 23 26 29 32 33 35 36 37 35 35 34 31 31 30 29 27 25 27 30 32 31 29 27 26 27 28 29 29 26 26 26 27 28 29 30 32 34 35 37 37
10 13 15 17 20 24 28 30 30 32 32 32 32 32 32 29 27 28 28 29 29 31 32 32 29 27 27 28 30 31 31 29 28 28 29 29 30 31 33 34 35 35 35 35
7 10 12 14 17 20 25 28 30 31 31 30 31 31 31 29 29 30 30 31 32 33 35 33 29 27 28 32 34 32 30 29 29 28 28 29 30 31 32 33 34 36 37 37
7 9 12 13 15 17 20 23 25 27 28 30 31 32 32 33 33 34 34 34 34 36 35 32 29 28 30 32 31 29 29 30 31 30 29 28 28 29 30 31 32 34 37 39
8 10 13 13 14 16 18 19 21 23 25 28 32 36 37 37 38 38 38 37 36 32 28 26 27 28 29 29 28 28 28 29 27 24 22 22 24 26 29 31 33 34 36 37
4 5 7 6 7 10 12 13 16 17 18 20 24 29 32 33 35 36 34 31 28 27 25 26 27 26 26 27 27 27 26 23 20 18 18 21 23 25 28 30 32 35 36 37
3 5 7 8 9 9 11 13 15 15 15 16 18 19 19 20 22 23 23 24 25 27 27 26 23 23 25 27 26 24 22 21 20 22 24 25 27 28 29 30 33 35 36 36
3 4 7 9 11 11 11 12 14 15 15 15 16 15 15 16 18 20 22 24 25 25 22 21 21 23 25 25 23 22 22 23 24 26 28 30 31 32 32 33 34 36 37 37
6 6 10 10 10 11 11 11 12 14 15 16 15 14 14 16 18 21 25 26 25 22 20 21 22 25 26 26 26 26 27 28 29 30 32 34 35 34 34 34 34 36 37 38
6 7 10 12 10 9 10 11 13 17 19 18 16 15 16 17 19 22 24 24 23 23 24 26 27 29 30 32 32 32 33 33 32 33 34 36 38 38 37 36 36 35 37 39
10 11 12 14 13 13 14 15 16 18 20 23 21 19 22 23 25 27 28 29 31 31 32 33 35 37 38 39 40 40 40 38 35 34 35 38 40 42 40 39 38 37 38 40
12 13 14 17 18 17 18 20 22 24 25 26 28 27 25 26 27 30 33 35 37 38 39 40 43 44 46 47 48 49 49 48 44 40 40 41 41 42 43 41 39 38 38 39
12 13 14 15 19 20 22 23 26 28 29 30 31 34 33 33 33 34 37 39 41 42 44 46 48 49 51 52 53 54 55 55 53 50 46 44 43 42 42 41 39 38 38 38
12 13 16 19 22 23 23 25 28 31 33 33 33 35 36 38 39 41 42 43 44 45 47 49 52 53 54 55 57 58 58 59 60 58 54 49 45 42 41 41 40 40 39 38
15 16 18 21 24 25 25 25 26 29 32 34 34 35 36 38 40 43 45 46 48 50 52 54 56 59 60 60 60 61 61 61 61 61 59 55 50 45 44 44 44 43 41 40
20 22 22 23 26 27 28 29 29 30 32 34 36 37 38 39 42 45 48 50 52 55 57 59 60 61 60 59 58 58 58 59 61 62 61 59 55 51 50 49 48 46 44 41
24 26 26 25 25 27 28 29 30 32 34 37 39 40 41 43 47 51 54 54 55 58 61 62 61 60 62 65 67 69 69 68 69 69 68 65 62 59 56 52 48 46 45 42
27 29 29 28 28 31 33 34 36 38 39 41 42 42 44 47 51 54 55 55 56 59 62 65 70 74 77 79 79 79 78 77 76 75 73 70 66 62 57 52 47 46 45 42
28 29 30 31 32 34 36 39 41 43 44 44 45 46 49 53 57 59 65 72 75 76 78 82 85 87 87 87 86 85 84 83 81 79 76 72 68 62 55 50 47 46 45 42
28 29 31 32 35 36 38 40 42 43 45 48 50 53 56 60 64 66 71 75 78 81 83 86 87 89 89 90 90 88 85 82 79 75 71 66 62 56 51 47 46 47 46 43
26 27 29 31 33 36 37 38 40 44 49 53 57 62 66 69 73 75 77 80 83 86 88 88 87 85 81 78 76 75 72 69 65 61 56 51 48 46 44 44 45 46 45 44
29 29 29 30 32 35 38 42 46 51 57 61 66 70 74 78 81 83 84 85 85 83 79 74 70 64 58 55 54 52 49 47 46 43 40 39 40 40 40 41 42 45 47 45
30 30 31 32 36 41 46 51 56 61 65 70 74 78 81 83 83 82 79 73 66 59 55 52 49 45 41 39 39 39 39 39 37 35 34 35 38 41 42 43 44 46 50 47
30 33 35 39 44 48 53 58 63 68 72 76 79 80 79 76 72 66 61 56 50 46 44 43 42 39 37 36 35 36 37 38 37 35 35 37 39 42 43 45 45 47 52 51
34 38 41 46 50 54 58 63 68 73 77 80 79 74 69 64 59 55 50 46 44 44 44 43 43 42 41 41 41 40 41 41 39 38 37 39 40 40 40 40 41 47 54 54
37 40 45 50 55 60 63 68 73 77 79 77 72 64 56 51 47 45 46 47 48 48 48 49 51 52 52 51 50 48 47 46 44 42 39 38 37 37 35 32 34 45 53 56
Wind_Direction
218 218 221 225 229 233 238 244 248 252 256 258 258 260 261 258 258 260 260 262 275 288 295 301 305 305 302 299 302 307 311 309 301 295 297 296 295 293 292 290 287 285 283 283
226 229 229 233 234 235 238 241 243 246 250 254 256 255 254 254 255 256 260 267 280 291 299 304 305 303 301 300 301 306 308 308 306 302 301 301 299 297 294 291 288 286 285 284
257 246 247 246 244 243 244 245 243 243 244 249 255 260 263 264 265 268 273 279 287 296 301 300 298 299 301 302 305 309 311 313 311 309 308 308 307 305 302 299 293 288 285 283
280 272 265 265 263 261 258 258 258 255 252 249 253 256 259 264 268 273 278 283 288 293 293 290 290 294 298 301 305 310 312 311 312 313 314 316 317 316 313 309 303 294 286 281
279 268 257 259 268 270 272 273 272 272 267 260 255 256 258 261 266 271 275 280 285 286 283 281 286 292 296 300 304 305 303 304 307 312 319 326 328 329 327 324 318 309 300 292
259 261 256 268 290 286 285 285 288 289 286 278 270 266 265 264 266 270 274 278 278 276 277 281 286 290 293 295 296 295 296 300 306 311 317 322 325 327 328 327 325 319 311 302
327 300 280 278 299 303 295 296 296 292 291 291 287 282 280 276 274 273 275 275 272 273 278 282 284 285 285 284 284 288 294 300 304 305 308 313 317 319 321 323 326 325 319 311
332 327 297 289 299 301 298 295 292 290 291 293 294 295 292 283 278 275 276 277 277 278 279 279 277 274 274 276 279 285 293 299 303 305 307 311 315 317 318 322 325 327 326 320
307 314 315 318 311 301 299 298 288 284 286 288 290 295 291 283 280 276 276 277 280 282 281 276 273 272 275 281 289 297 303 307 309 311 313 313 315 316 317 319 322 325 327 327
335 336 324 328 325 317 307 300 290 286 290 289 287 285 281 283 286 283 281 282 287 290 289 286 285 287 292 297 302 305 306 309 311 313 315 315 314 314 314 315 315 319 324 328
350 344 335 329 334 329 320 312 303 298 299 300 298 292 289 288 289 289 288 286 288 292 295 296 295 296 298 301 304 306 307 306 305 307 312 312 310 310 311 311 312 312 317 324
341 338 332 322 328 327 322 318 313 308 307 306 305 303 297 291 287 287 289 291 293 294 296 297 297 298 299 301 303 305 306 305 303 303 307 308 306 304 305 306 308 308 311 319
336 330 324 317 320 322 320 318 314 311 310 309 309 307 305 303 299 295 294 294 294 295 296 296 296 296 296 297 298 299 300 301 300 299 300 302 302 301 300 301 303 305 308 314
336 332 325 319 316 315 313 310 307 306 306 306 305 302 302 301 300 298 296 294 293 293 292 292 291 291 291 291 292 293 295 295 295 294 293 295 297 298 298 299 300 300 304 308
331 328 323 317 311 310 307 301 297 295 297 298 298 296 295 294 293 292 291 291 290 289 288 288 288 289 288 287 288 288 290 291 291 289 288 290 293 294 294 296 297 296 297 301
322 322 320 316 311 307 304 301 299 298 298 298 298 296 294 291 290 288 288 287 287 286 284 282 282 282 279 277 279 281 283 283 282 282 283 286 288 290 291 291 291 290 289 292
316 316 315 313 309 305 304 304 304 304 304 304 302 299 296 295 295 295 289 283 281 281 277 273 270 272 276 281 283 284 284 284 283 283 285 288 290 290 288 286 285 283 281 281
316 315 314 313 310 309 307 307 307 308 307 306 304 304 301 296 296 295 287 281 281 279 277 277 280 283 284 285 285 285 285 284 284 284 283 284 285 285 282 280 276 273 271 271
313 312 312 312 312 312 312 313 314 314 313 311 310 306 297 293 293 289 287 287 287 285 284 284 285 285 286 286 285 284 283 282 281 281 281 281 281 280 277 272 267 263 261 261
318 317 315 315 314 313 312 313 316 317 312 312 308 303 299 296 293 290 287 286 286 286 285 285 285 286 286 286 285 284 284 283 282 280 279 279 277 274 268 262 256 253 252 251
317 314 312 312 312 313 317 320 319 311 310 309 307 304 301 298 297 295 291 289 288 288 288 289 289 289 290 289 288 286 285 283 281 278 275 271 266 261 256 252 247 242 243 243
322 322 322 322 322 323 324 322 317 313 311 309 307 304 301 300 298 295 293 293 293 294 295 296 296 295 294 291 289 289 288 284 279 273 268 262 259 256 254 250 246 239 234 236
329 329 329 329 328 326 324 320 317 315 313 311 309 306 304 302 301 301 303 304 304 302 300 299 299 299 297 293 292 293 291 288 284 279 274 269 265 263 260 256 252 242 231 226
330 329 328 327 326 324 321 319 317 316 314 313 311 309 308 308 310 312 312 312 310 307 304 302 300 300 298 295 294 294 293 288 284 280 277 275 273 269 264 259 252 240 228 221
329 327 326 326 326 324 322 320 318 317 316 315 314 314 315 315 315 315 316 317 316 313 308 303 300 298 296 293 291 290 291 289 285 282 281 281 278 273 269 261 250 231 220 212
331 330 329 329 327 326 324 323 321 320 319 318 318 319 318 317 318 319 320 320 317 313 308 303 299 297 294 292 289 287 286 285 285 284 283 282 276 274 271 262 242 219 210 203
Height
5857 5860 5860 5862 5864 5866 5867 5868 5869 5870 5871 5872 5873 5874 5875 5876 5877 5876 5875 5874 5872 5872 5871 5869 5866 5862 5859 5856 5854 5852 5849 5846 5843 5841 5839 5837 5835 5833 5831 5829 5827 5825 5823 5821
5858 5858 5859 5859 5861 5862 5863 5863 5864 5865 5865 5866 5866 5867 5868 5869 5869 5869 5869 5868 5868 5867 5866 5863 5859 5856 5853 5850 5848 5846 5843 5839 5836 5834 5831 5829 5827 5825 5824 5821 5819 5816 5814 5812
5856 5858 5858 5858 5859 5859 5859 5860 5860 5861 5861 5861 5861 5861 5861 5862 5862 5862 5862 5862 5861 5860 5859 5857 5854 5850 5847 5843 5840 5838 5834 5831 5829 5826 5824 5822 5819 5817 5815 5812 5810 5807 5805 5803
5856 5857 5857 5857 5857 5857 5857 5858 5857 5857 5858 5858 5858 5856 5856 5855 5855 5855 5855 5855 5855 5855 5853 5850 5848 5845 5842 5838 5835 5832 5829 5826 5823 5820 5818 5815 5813 5810 5807 5804 5801 5798 5795 5792
5855 5855 5856 5856 5856 5855 5854 5854 5853 5852 5852 5853 5852 5851 5851 5851 5850 5850 5850 5850 5849 5848 5846 5844 5842 5840 5837 5833 5830 5827 5824 5821 5818 5815 5812 5810 5807 5803 5800 5796 5792 5789 5785 5782
5854 5854 5854 5854 5853 5852 5851 5851 5849 5848 5847 5847 5846 5846 5846 5847 5846 5846 5846 5845 5844 5843 5841 5840 5838 5835 5832 5829 5825 5822 5819 5817 5814 5811 5808 5805 5801 5798 5795 5790 5786 5781 5776 5772
5853 5853 5852 5852 5851 5850 5849 5848 5847 5845 5844 5843 5842 5841 5842 5841 5841 5840 5840 5839 5838 5837 5836 5834 5832 5830 5826 5823 5819 5817 5814 5811 5809 5806 5803 5799 5796 5793 5789 5785 5780 5775 5769 5764
5852 5852 5851 5850 5849 5848 5846 5845 5844 5843 5841 5840 5839 5838 5838 5837 5836 5835 5834 5832 5831 5830 5829 5828 5826 5823 5819 5816 5814 5811 5809 5806 5803 5799 5796 5792 5789 5785 5781 5777 5772 5767 5762 5757
5852 5851 5849 5847 5846 5845 5843 5842 5841 5839 5838 5837 5836 5835 5834 5832 5831 5829 5827 5826 5825 5824 5823 5820 5818 5815 5811 5809 5806 5803 5801 5797 5793 5790 5786 5783 5780 5777 5773 5769 5764 5760 5755 5749
5851 5849 5847 5845 5844 5843 5841 5839 5838 5836 5834 5833 5832 5830 5829 5827 5826 5824 5821 5819 5818 5817 5814 5811 5808 5805 5801 5798 5796 5793 5790 5787 5784 5781 5777 5774 5771 5768 5765 5761 5757 5752 5747 5741
5848 5847 5845 5843 5842 5840 5839 5837 5834 5832 5830 5828 5826 5828 5825 5823 5821 5818 5815 5813 5810 5807 5804 5801 5797 5794 5791 5788 5785 5782 5780 5777 5774 5772 5769 5766 5763 5759 5756 5753 5749 5744 5740 5734
5846 5844 5843 5841 5839 5837 5835 5833 5831 5829 5826 5823 5820 5821 5818 5816 5814 5811 5807 5804 5800 5797 5793 5789 5786 5783 5780 5776 5773 5770 5767 5765 5763 5761 5759 5757 5753 5750 5747 5744 5741 5737 5732 5727
5845 5843 5841 5839 5839 5835 5832 5829 5825 5822 5820 5817 5815 5814 5808 5806 5804 5801 5797 5794 5790 5786 5782 5779 5776 5772 5769 5765 5762 5758 5755 5752 5750 5748 5747 5745 5742 5740 5737 5734 5732 5728 5724 5720
5844 5842 5840 5838 5834 5832 5829 5826 5821 5817 5813 5811 5809 5805 5800 5796 5792 5788 5785 5781 5778 5774 5770 5767 5763 5759 5756 5752 5749 5745 5741 5738 5736 5734 5733 5732 5730 5729 5727 5725 5723 5720 5716 5712
5842 5841 5837 5834 5830 5827 5824 5821 5818 5814 5809 5805 5801 5797 5793 5788 5783 5779 5774 5770 5766 5762 5757 5753 5748 5744 5740 5736 5733 5730 5727 5723 5720 5718 5717 5717 5717 5716 5715 5714 5713 5711 5708 5705
5839 5836 5834 5830 5826 5822 5818 5814 5811 5808 5803 5799 5794 5789 5784 5780 5775 5769 5764 5759 5754 5748 5743 5737 5733 5728 5724 5720 5717 5714 5711 5708 5705 5703 5701 5700 5701 5701 5701 5701 5700 5700 5698 5695
5835 5832 5828 5825 5821 5816 5814 5809 5805 5800 5795 5790 5785 5781 5775 5769 5764 5757 5750 5744 5738 5733 5727 5721 5715 5711 5707 5704 5700 5697 5694 5692 5689 5686 5683 5682 5682 5684 5685 5685 5686 5686 5686 5685
5830 5826 5822 5819 5816 5811 5808 5801 5797 5792 5787 5782 5776 5770 5764 5758 5752 5745 5736 5727 5720 5714 5708 5702 5695 5690 5686 5682 5678 5675 5672 5670 5667 5665 5663 5662 5662 5664 5665 5667 5669 5671 5672 5672
5825 5821 5816 5812 5808 5803 5798 5792 5787 5782 5777 5771 5765 5759 5753 5745 5740 5734 5723 5713 5704 5696 5688 5680 5673 5666 5661 5655 5651 5648 5646 5644 5641 5639 5638 5638 5639 5642 5644 5647 5651 5654 5656 5658
5819 5814 5810 5805 5800 5796 5793 5786 5779 5774 5766 5760 5753 5746 5737 5728 5720 5715 5703 5691 5681 5672 5663 5655 5648 5642 5636 5628 5621 5619 5618 5615 5613 5612 5612 5613 5613 5617 5621 5625 5630 5636 5640 5644
5815 5810 5805 5800 5794 5788 5784 5778 5773 5765 5758 5748 5737 5727 5716 5705 5695 5686 5676 5665 5655 5646 5637 5628 5620 5615 5610 5601 5593 5591 5591 5588 5586 5585 5586 5587 5588 5592 5597 5603 5609 5616 5622 5628
5808 5804 5799 5794 5789 5785 5777 5770 5762 5753 5742 5731 5720 5707 5694 5683 5671 5659 5648 5639 5630 5619 5609 5600 5591 5587 5583 5577 5570 5567 5566 5563 5562 5562 5564 5567 5569 5573 5578 5584 5590 5596 5603 5611
5803 5798 5792 5788 5784 5775 5766 5757 5748 5736 5725 5713 5700 5687 5672 5658 5647 5635 5624 5614 5605 5596 5589 5582 5575 5570 5567 5562 5557 5554 5552 5549 5548 5548 5550 5552 5555 5558 5561 5566 5571 5577 5585 5593
5798 5792 5787 5781 5774 5766 5756 5745 5734 5721 5708 5695 5679 5664 5649 5634 5623 5613 5604 5596 5588 5581 5575 5569 5563 5558 5554 5550 5545 5542 5540 5537 5536 5536 5536 5537 5538 5540 5541 5545 5550 5556 5565 5574
5794 5788 5781 5773 5765 5756 5746 5733 5720 5706 5690 5674 5658 5644 5629 5616 5607 5598 5590 5583 5576 5570 5563 5557 5550 5545 5541 5536 5532 5529 5526 5523 5522 5522 5521 5521 5520 5521 5521 5522 5525 5532 5544 5558
5789 5782 5774 5765 5755 5743 5732 5718 5703 5688 5671 5653 5638 5627 5616 5604 5596 5589 5581 5574 5566 5558 5551 5543 5536 5529 5524 5519 5515 5512 5509 5507 5506 5506 5506 5505 5504 5504 5504 5504 5507 5514 5527 5543